Flag for United Kingdom Weather past 2 weeks in Guildford, England, United Kingdom

Now
55 °F

Clear.


Feels Like: 53 °F
Forecast: 57 / 67 °F
Wind: 9 mph from Southwest

Location: Odiham

Current Time: Aug 4, 2015 at 4:59:17 AM

Latest Report: Aug 4, 2015 at 3:50 AM


Visibility: 10 mi

Pressure: 29.86 "Hg

Humidity: 88%

Dew point: 52 °F

Location of GuildfordLocation

Historic Weather in Guildford — Graph

°F

Guildford temperature yesterday

Maximum temperature yesterday: 72 °F (at 12:50 PM)
Minimum temperature yesterday: 61 °F (at 12:50 AM)
Average temperature yesterday: 65 °F

Past Weeks' High & Low Weather Summary

 TemperatureHumidityPressure
High75 °F (Jul 21, 2:50 PM)100% (Jul 20, 6:50 PM)30.12 "Hg (Jul 20, 6:50 PM)
Low43 °F (Jul 31, 4:50 AM)31% (Aug 2, 3:50 PM)29.45 "Hg (Jul 26, 5:50 PM)
Average59 °F73%29.89 "Hg
* Reported Jul 20 3:50 AM — Aug 4 3:50 AM, Guildford, Weather by CustomWeather, © 2015

Note: Actual official high and low records may vary slightly from our data, if they occured in-between our weather recording intervals... More about our weather records

Advertising

Guildford weather history for previous 24 hours

 ConditionsComfort  
Time TempWeatherWind HumidityBarometerVisibility
3:50 AM
Tue, Aug 4
55 °FClear.9 mph88%29.86 "Hg10 mi
2:50 AM55 °FClear.8 mph88%29.86 "Hg10 mi
1:50 AM59 °FClear.10 mph77%29.86 "Hg10 mi
12:50 AM61 °FPassing clouds.10 mph77%29.86 "HgN/A
11:50 PM
Mon, Aug 3
61 °FClear.12 mph83%29.86 "Hg10 mi
10:50 PM61 °FPartly cloudy.12 mph83%29.86 "HgN/A
9:50 PM63 °FPassing clouds.10 mph73%29.86 "HgN/A
8:50 PM63 °FBroken clouds.8 mph68%29.86 "HgN/A
7:50 PM64 °FPartly sunny.14 mph64%29.86 "HgN/A
6:50 PM66 °FBroken clouds.15 mph64%29.86 "HgN/A
5:50 PM68 °FPartly sunny.16 mph64%29.86 "HgN/A
4:50 PM70 °FPartly sunny.18 mph60%29.86 "HgN/A
3:50 PM70 °FScattered clouds.16 mph60%29.86 "HgN/A
2:50 PM68 °FBroken clouds.21 mph64%29.89 "HgN/A
1:50 PM72 °FBroken clouds.18 mph57%29.86 "HgN/A
12:50 PM72 °FBroken clouds.21 mph57%29.86 "HgN/A
11:50 AM70 °FBroken clouds.20 mph60%29.86 "HgN/A
10:50 AM70 °FBroken clouds.13 mph64%29.86 "HgN/A
9:50 AM66 °FBroken clouds.16 mph78%29.86 "HgN/A
8:50 AM64 °FBroken clouds.12 mph83%29.86 "HgN/A
7:50 AM64 °FPartly sunny.15 mph83%29.83 "HgN/A
6:50 AM63 °FBroken clouds.14 mph94%29.83 "HgN/A
5:50 AM61 °FPassing clouds.15 mph88%29.80 "HgN/A
4:50 AM61 °FPassing clouds.15 mph88%29.80 "HgN/A
Weather by CustomWeather, © 2015

See weather overviewHow to use our weather pages